Time,TemperatureF,DewpointF,PressureIn,WindDirection,WindDirectionDegrees,WindSpeedMPH,WindSpeedGustMPH,Humidity,HourlyPrecipIn,Conditions,Clouds,dailyrainin,SoftwareType,DateUTC
2013-07-28 00:05:00,70.2,69.9,29.79,SSW,202,0.0,-999.0,99,-99.99,,,0.00,Acu-Link.com,2013-07-28 04:05:00,
2013-07-28 00:20:00,70.2,69.9,29.81,SSW,202,0.0,-999.0,99,-99.99,,,0.00,Acu-Link.com,2013-07-28 04:20:00,
2013-07-28 00:36:00,70.2,69.9,29.80,SSW,202,0.0,-999.0,99,-99.99,,,0.00,Acu-Link.com,2013-07-28 04:36:00,
2013-07-28 01:21:00,70.5,70.2,29.78,WNW,292,0.0,-999.0,99,-99.99,,,0.00,Acu-Link.com,2013-07-28 05:21:00,
2013-07-28 01:37:00,70.5,70.2,29.78,West,270,0.0,-999.0,99,-99.99,,,0.00,Acu-Link.com,2013-07-28 05:37:00,
2013-07-28 01:52:00,70.5,70.2,29.77,West,270,0.0,-999.0,99,-99.99,,,0.00,Acu-Link.com,2013-07-28 05:52:00,
2013-07-28 02:07:00,70.7,70.4,29.76,SW,225,0.0,-999.0,99,-99.99,,,0.00,Acu-Link.com,2013-07-28 06:07:00,
2013-07-28 02:22:00,70.9,70.6,29.76,SW,225,0.0,-999.0,99,-99.99,,,0.00,Acu-Link.com,2013-07-28 06:22:00,
2013-07-28 02:37:00,70.9,70.6,29.76,NNE,22,0.0,-999.0,99,-99.99,,,0.00,Acu-Link.com,2013-07-28 06:37:00,
2013-07-28 02:53:00,70.9,70.6,29.76,SW,225,0.0,-999.0,99,-99.99,,,0.00,Acu-Link.com,2013-07-28 06:53:00,
2013-07-28 03:08:00,70.7,70.4,29.76,NNE,22,0.0,-999.0,99,-99.99,,,0.00,Acu-Link.com,2013-07-28 07:08:00,
2013-07-28 03:23:00,70.7,70.4,29.77,WSW,247,0.0,-999.0,99,-99.99,,,0.00,Acu-Link.com,2013-07-28 07:23:00,
2013-07-28 03:38:00,70.5,70.2,29.76,ENE,67,0.0,-999.0,99,-99.99,,,0.00,Acu-Link.com,2013-07-28 07:38:00,
2013-07-28 03:53:00,70.5,70.2,29.76,ESE,112,0.0,-999.0,99,-99.99,,,0.00,Acu-Link.com,2013-07-28 07:53:00,
2013-07-28 04:09:00,70.3,70.0,29.76,ESE,112,0.0,-999.0,99,-99.99,,,0.00,Acu-Link.com,2013-07-28 08:09:00,
2013-07-28 04:24:00,70.2,69.9,29.76,NNE,22,0.0,-999.0,99,-99.99,,,0.00,Acu-Link.com,2013-07-28 08:24:00,
2013-07-28 04:39:00,70.2,69.9,29.77,West,270,0.0,-999.0,99,-99.99,,,0.00,Acu-Link.com,2013-07-28 08:39:00,
2013-07-28 04:54:00,69.8,69.5,29.77,South,180,0.0,-999.0,99,-99.99,,,0.00,Acu-Link.com,2013-07-28 08:54:00,
2013-07-28 05:09:00,69.6,69.3,29.77,South,180,0.0,-999.0,99,-99.99,,,0.00,Acu-Link.com,2013-07-28 09:09:00,
2013-07-28 05:25:00,69.4,69.1,29.77,ESE,112,0.0,-999.0,99,-99.99,,,0.00,Acu-Link.com,2013-07-28 09:25:00,
2013-07-28 05:40:00,69.3,69.0,29.77,SSW,202,0.0,-999.0,99,-99.99,,,0.00,Acu-Link.com,2013-07-28 09:40:00,
2013-07-28 05:55:00,69.4,69.1,29.78,North,0,0.0,-999.0,99,-99.99,,,0.00,Acu-Link.com,2013-07-28 09:55:00,
2013-07-28 06:10:00,69.3,69.0,29.78,North,0,0.0,-999.0,99,-99.99,,,0.00,Acu-Link.com,2013-07-28 10:10:00,
2013-07-28 06:25:00,69.1,68.8,29.78,North,0,0.0,-999.0,99,-99.99,,,0.00,Acu-Link.com,2013-07-28 10:25:00,
2013-07-28 06:41:00,69.1,68.8,29.79,North,0,0.0,-999.0,99,-99.99,,,0.00,Acu-Link.com,2013-07-28 10:41:00,
2013-07-28 07:26:00,70.0,69.7,29.80,North,0,0.0,-999.0,99,-99.99,,,0.00,Acu-Link.com,2013-07-28 11:26:00,
2013-07-28 07:42:00,71.1,70.8,29.79,South,180,0.0,-999.0,99,-99.99,,,0.00,Acu-Link.com,2013-07-28 11:42:00,
2013-07-28 07:57:00,71.8,71.5,29.80,South,180,0.0,-999.0,99,-99.99,,,0.00,Acu-Link.com,2013-07-28 11:57:00,
2013-07-28 08:12:00,72.5,72.2,29.79,South,180,0.0,-999.0,99,-99.99,,,0.00,Acu-Link.com,2013-07-28 12:12:00,
2013-07-28 08:27:00,73.0,72.7,29.80,WNW,292,0.0,-999.0,99,-99.99,,,0.00,Acu-Link.com,2013-07-28 12:27:00,
2013-07-28 08:42:00,73.8,72.9,29.79,North,0,0.0,-999.0,97,-99.99,,,0.00,Acu-Link.com,2013-07-28 12:42:00,
2013-07-28 08:58:00,74.7,72.9,29.79,NNW,337,1.7,-999.0,94,-99.99,,,0.00,Acu-Link.com,2013-07-28 12:58:00,
2013-07-28 09:13:00,75.6,73.1,29.80,South,180,0.0,-999.0,92,-99.99,,,0.00,Acu-Link.com,2013-07-28 13:13:00,
2013-07-28 09:28:00,76.1,72.9,29.80,NE,45,0.0,-999.0,90,-99.99,,,0.00,Acu-Link.com,2013-07-28 13:28:00,
2013-07-28 09:43:00,77.2,73.4,29.80,East,90,0.0,-999.0,88,-99.99,,,0.00,Acu-Link.com,2013-07-28 13:43:00,
2013-07-28 09:58:00,77.5,73.3,29.79,SSE,157,1.7,-999.0,87,-99.99,,,0.00,Acu-Link.com,2013-07-28 13:58:00,
2013-07-28 10:14:00,78.8,73.9,29.80,North,0,1.7,-999.0,85,-99.99,,,0.00,Acu-Link.com,2013-07-28 14:14:00,
2013-07-28 10:29:00,80.1,74.1,29.80,NW,315,1.7,-999.0,82,-99.99,,,0.00,Acu-Link.com,2013-07-28 14:29:00,
2013-07-28 10:44:00,81.5,73.6,29.81,West,270,1.1,-999.0,77,-99.99,,,0.00,Acu-Link.com,2013-07-28 14:44:00,
2013-07-28 10:59:00,81.1,74.0,29.81,East,90,1.1,-999.0,79,-99.99,,,0.00,Acu-Link.com,2013-07-28 14:59:00,
2013-07-28 11:14:00,82.0,74.1,29.82,South,180,0.0,-999.0,77,-99.99,,,0.00,Acu-Link.com,2013-07-28 15:14:00,
2013-07-28 11:30:00,80.8,74.0,29.82,SSE,157,2.7,-999.0,80,-99.99,,,0.00,Acu-Link.com,2013-07-28 15:30:00,
2013-07-28 11:45:00,82.6,75.0,29.81,SSW,202,1.7,-999.0,78,-99.99,,,0.00,Acu-Link.com,2013-07-28 15:45:00,
2013-07-28 12:00:00,83.1,73.9,29.82,NE,45,1.1,-999.0,74,-99.99,,,0.00,Acu-Link.com,2013-07-28 16:00:00,
2013-07-28 12:15:00,82.0,73.7,29.82,East,90,4.2,-999.0,76,-99.99,,,0.00,Acu-Link.com,2013-07-28 16:15:00,
2013-07-28 12:31:00,82.0,73.7,29.82,WSW,247,2.7,-999.0,76,-99.99,,,0.00,Acu-Link.com,2013-07-28 16:31:00,
2013-07-28 12:46:00,84.2,74.2,29.82,SE,135,2.2,-999.0,72,-99.99,,,0.00,Acu-Link.com,2013-07-28 16:46:00,
2013-07-28 13:16:00,82.8,73.6,29.82,West,270,0.0,-999.0,74,-99.99,,,0.00,Acu-Link.com,2013-07-28 17:16:00,
2013-07-28 13:47:00,86.7,74.4,29.80,SW,225,1.7,-999.0,67,-99.99,,,0.00,Acu-Link.com,2013-07-28 17:47:00,
2013-07-28 14:02:00,85.3,71.7,29.81,ESE,112,1.1,-999.0,64,-99.99,,,0.00,Acu-Link.com,2013-07-28 18:02:00,
2013-07-28 14:17:00,87.3,71.7,29.81,SE,135,1.7,-999.0,60,-99.99,,,0.00,Acu-Link.com,2013-07-28 18:17:00,
2013-07-28 14:32:00,87.8,72.6,29.79,SSW,202,2.2,-999.0,61,-99.99,,,0.00,Acu-Link.com,2013-07-28 18:32:00,
2013-07-28 14:47:00,84.2,72.9,29.80,SE,135,2.2,-999.0,69,-99.99,,,0.00,Acu-Link.com,2013-07-28 18:47:00,
2013-07-28 15:03:00,87.4,74.6,29.79,South,180,1.1,-999.0,66,-99.99,,,0.00,Acu-Link.com,2013-07-28 19:03:00,
2013-07-28 15:18:00,86.0,74.2,29.78,South,180,2.2,-999.0,68,-99.99,,,0.00,Acu-Link.com,2013-07-28 19:18:00,
2013-07-28 15:33:00,86.7,74.8,29.78,South,180,1.7,-999.0,68,-99.99,,,0.00,Acu-Link.com,2013-07-28 19:33:00,
2013-07-28 15:48:00,86.5,73.8,29.79,South,180,2.2,-999.0,66,-99.99,,,0.00,Acu-Link.com,2013-07-28 19:48:00,
2013-07-28 16:03:00,86.0,74.6,29.78,SSW,202,2.2,-999.0,69,-99.99,,,0.00,Acu-Link.com,2013-07-28 20:03:00,
2013-07-28 16:19:00,85.8,74.9,29.79,South,180,2.2,-999.0,70,-99.99,,,0.00,Acu-Link.com,2013-07-28 20:19:00,
2013-07-28 16:34:00,86.7,74.4,29.79,ESE,112,1.1,-999.0,67,-99.99,,,0.00,Acu-Link.com,2013-07-28 20:34:00,
2013-07-28 16:49:00,86.4,74.6,29.78,South,180,1.7,-999.0,68,-99.99,,,0.00,Acu-Link.com,2013-07-28 20:49:00,
2013-07-28 17:04:00,86.0,73.7,29.78,South,180,1.1,-999.0,67,-99.99,,,0.00,Acu-Link.com,2013-07-28 21:04:00,
2013-07-28 17:19:00,87.6,74.8,29.79,SE,135,1.7,-999.0,66,-99.99,,,0.00,Acu-Link.com,2013-07-28 21:19:00,
2013-07-28 17:35:00,87.8,74.1,29.78,SE,135,0.0,-999.0,64,-99.99,,,0.00,Acu-Link.com,2013-07-28 21:35:00,
2013-07-28 17:50:00,86.4,74.1,29.79,South,180,2.7,-999.0,67,-99.99,,,0.00,Acu-Link.com,2013-07-28 21:50:00,
2013-07-28 18:05:00,88.0,74.3,29.79,South,180,1.7,-999.0,64,-99.99,,,0.00,Acu-Link.com,2013-07-28 22:05:00,
2013-07-28 18:20:00,87.1,74.3,29.78,South,180,2.7,-999.0,66,-99.99,,,0.00,Acu-Link.com,2013-07-28 22:20:00,
2013-07-28 18:36:00,88.9,75.1,29.79,SSW,202,2.2,-999.0,64,-99.99,,,0.00,Acu-Link.com,2013-07-28 22:36:00,
2013-07-28 18:51:00,89.6,75.8,29.79,South,180,2.2,-999.0,64,-99.99,,,0.00,Acu-Link.com,2013-07-28 22:51:00,
2013-07-28 19:06:00,87.8,75.0,29.79,South,180,2.2,-999.0,66,-99.99,,,0.00,Acu-Link.com,2013-07-28 23:06:00,
2013-07-28 19:21:00,87.3,75.9,29.80,SSW,202,1.7,-999.0,69,-99.99,,,0.00,Acu-Link.com,2013-07-28 23:21:00,
2013-07-28 19:36:00,85.8,75.3,29.80,SSW,202,1.1,-999.0,71,-99.99,,,0.00,Acu-Link.com,2013-07-28 23:36:00,
2013-07-28 19:52:00,84.4,75.6,29.81,SSW,202,0.0,-999.0,75,-99.99,,,0.00,Acu-Link.com,2013-07-28 23:52:00,
2013-07-28 20:07:00,82.6,75.4,29.82,SSW,202,0.0,-999.0,79,-99.99,,,0.00,Acu-Link.com,2013-07-29 00:07:00,
2013-07-28 20:22:00,81.0,74.6,29.82,SSW,202,0.0,-999.0,81,-99.99,,,0.00,Acu-Link.com,2013-07-29 00:22:00,
2013-07-28 20:37:00,79.7,74.8,29.82,SSW,202,0.0,-999.0,85,-99.99,,,0.00,Acu-Link.com,2013-07-29 00:37:00,
2013-07-28 20:52:00,78.1,74.6,29.82,SSW,202,0.0,-999.0,89,-99.99,,,0.00,Acu-Link.com,2013-07-29 00:52:00,
2013-07-28 21:08:00,77.4,74.2,29.82,SSW,202,0.0,-999.0,90,-99.99,,,0.00,Acu-Link.com,2013-07-29 01:08:00,
2013-07-28 21:23:00,76.6,73.8,29.83,SSW,202,0.0,-999.0,91,-99.99,,,0.00,Acu-Link.com,2013-07-29 01:23:00,
2013-07-28 21:53:00,75.4,73.2,29.83,SSW,202,0.0,-999.0,93,-99.99,,,0.00,Acu-Link.com,2013-07-29 01:53:00,
2013-07-28 22:08:00,74.8,73.0,29.84,SSW,202,0.0,-999.0,94,-99.99,,,0.00,Acu-Link.com,2013-07-29 02:08:00,
2013-07-28 22:24:00,74.5,73.0,29.85,SSW,202,0.0,-999.0,95,-99.99,,,0.00,Acu-Link.com,2013-07-29 02:24:00,
2013-07-28 22:54:00,75.7,73.8,29.84,South,180,0.0,-999.0,94,-99.99,,,0.00,Acu-Link.com,2013-07-29 02:54:00,
2013-07-28 23:09:00,75.9,73.7,29.84,South,180,0.0,-999.0,93,-99.99,,,0.00,Acu-Link.com,2013-07-29 03:09:00,